Wolf Creek Pass, CO

6:44 PM MST on December 16, 2017 (GMT -0700)
Wolf Creek Pass

Weather History for KCPW - January, 2013

Change the Weather History Date:

Friday, January 4, 2013

  Actual Average (KALS) Record (KALS)
Temperature  
Mean Temperature 14 °F -  
Max Temperature 21 °F 27 °F 52 °F (1946)
Min Temperature 8 °F -9 °F -34 °F (2013)
Degree Days  
Heating Degree Days 50    
Moisture  
Dew Point -2 °F    
Average Humidity 45    
Maximum Humidity 62    
Minimum Humidity 33    
Precipitation  
Precipitation 0.00 in - - ()
Sea Level Pressure  
Sea Level Pressure 30.08 in    
Wind  
Wind Speed 15 mph (NNE)    
Max Wind Speed 22 mph    
Max Gust Speed 30 mph    
Visibility 10 miles    
Events      
Averages and records for this station are not official NWS values.
T = Trace of Precipitation, MM = Missing Value Source: NWS Daily Summary

Daily Weather History Graph

Daily Weather History Graph

Search for Another Location

Airport or City:

Trip Planner

Search our weather history database for the weather conditions in past years. The results will help you decide how hot, cold, wet, or windy it might be!

Date:

Astronomy

Jan. 04, 2013 Rise Set
Actual Time 7:22 AM MST 5:02 PM MST
Civil Twilight 6:53 AM MST 5:31 PM MST
Nautical Twilight 6:20 AM MST 6:04 PM MST
Astronomical Twilight 5:48 AM MST 6:36 PM MST
Moon No Moon Rise 11:15 AM MST (1/4)
Length of Visible Light 10h 38m
Length of Day
9h 40m
Waning Gibbous, 54% of the Moon is Illuminated
Jan 4
Waning Gibbous
Jan 4
Last Quarter
Jan 11
New
Jan 18
First Quarter
Jan 26
Full

Hourly Weather History & Observations

Time (MST) Temp. Windchill Dew Point Humidity Pressure Visibility Wind Dir Wind Speed Gust Speed Precip Events Conditions
12:06 AM 8.6 °F -11.0 °F -9.4 °F 44% 30.12 in 10.0 mi NE 20.7 mph - N/A   Clear
12:26 AM 10.4 °F -8.2 °F -7.6 °F 44% 30.12 in 10.0 mi NNE 19.6 mph 24.2 mph N/A   Clear
12:46 AM 8.6 °F -10.0 °F -7.6 °F 48% 30.11 in 10.0 mi NE 18.4 mph - N/A   Clear
1:06 AM 10.4 °F -8.2 °F -7.6 °F 44% 30.10 in 10.0 mi NE 19.6 mph - N/A   Clear
1:26 AM 10.4 °F -7.2 °F -7.6 °F 44% 30.11 in 10.0 mi NE 17.3 mph - N/A   Clear
1:46 AM 8.6 °F -10.5 °F -7.6 °F 48% 30.10 in 10.0 mi NE 19.6 mph - N/A   Clear
2:06 AM 10.4 °F -8.2 °F -7.6 °F 44% 30.10 in 10.0 mi NNE 19.6 mph - N/A   Clear
2:26 AM 10.4 °F -8.6 °F -7.6 °F 44% 30.10 in 10.0 mi NE 20.7 mph - N/A   Clear
9:46 AM 17.6 °F 2.7 °F -2.2 °F 42% 30.14 in 10.0 mi NE 16.1 mph 19.6 mph N/A   Clear
10:06 AM 17.6 °F 0.9 °F -2.2 °F 42% 30.14 in 10.0 mi NNE 20.7 mph 29.9 mph N/A   Clear
10:26 AM 17.6 °F 0.5 °F -2.2 °F 42% 30.13 in 10.0 mi NNE 21.9 mph 28.8 mph N/A   Clear
10:46 AM 17.6 °F 0.5 °F -2.2 °F 42% 30.13 in 10.0 mi NE 21.9 mph - N/A   Clear
11:06 AM 17.6 °F 1.7 °F -4.0 °F 38% 30.13 in 10.0 mi NE 18.4 mph 24.2 mph N/A   Clear
11:26 AM 19.4 °F 2.8 °F -2.2 °F 39% 30.12 in 10.0 mi NE 21.9 mph - N/A   Clear
11:46 AM 19.4 °F 4.5 °F -4.0 °F 36% 30.11 in 10.0 mi NE 17.3 mph - N/A   Clear
12:06 PM 19.4 °F 5.0 °F -4.0 °F 36% 30.10 in 10.0 mi NNE 16.1 mph - N/A   Clear
12:26 PM 19.4 °F 5.0 °F -4.0 °F 36% 30.09 in 10.0 mi NNE 16.1 mph 21.9 mph N/A   Clear
12:46 PM 21.2 °F 6.4 °F -2.2 °F 36% 30.08 in 10.0 mi NNE 18.4 mph 21.9 mph N/A   Clear
1:06 PM 19.4 °F 3.6 °F -4.0 °F 36% 30.07 in 10.0 mi NNE 19.6 mph - N/A   Clear
1:26 PM 21.2 °F 11.7 °F -4.0 °F 33% 30.07 in 10.0 mi NNE 8.1 mph 23.0 mph N/A   Clear
1:46 PM 21.2 °F 14.9 °F -2.2 °F 36% 30.06 in 10.0 mi ENE 4.6 mph 17.3 mph N/A   Clear
2:06 PM 19.4 °F - 3.2 °F 49% 30.05 in 10.0 mi Calm Calm - N/A   Clear
2:25 PM 21.2 °F 16.4 °F 3.2 °F 46% 30.05 in 10.0 mi South 3.5 mph - N/A   Clear
3:26 PM 19.4 °F 12.8 °F 3.2 °F 49% 30.05 in 10.0 mi SSW 4.6 mph - N/A   Clear
3:42 PM 19.4 °F 12.8 °F 3.2 °F 49% 30.05 in 10.0 mi South 4.6 mph - N/A   Clear
4:06 PM 17.6 °F 10.7 °F 1.4 °F 49% 30.05 in 10.0 mi SSW 4.6 mph - N/A   Clear
4:26 PM 17.6 °F 10.7 °F 1.4 °F 49% 30.05 in 10.0 mi SSW 4.6 mph - N/A   Clear
4:46 PM 14.0 °F - -0.4 °F 53% 30.05 in 10.0 mi Calm Calm - N/A   Clear
5:06 PM 14.0 °F - -0.4 °F 53% 30.05 in 10.0 mi Calm Calm - N/A   Clear
5:26 PM 12.2 °F -2.5 °F 1.4 °F 62% 30.05 in 10.0 mi North 12.7 mph - N/A   Clear
5:46 PM 14.0 °F -0.2 °F -0.4 °F 53% 30.06 in 10.0 mi North 12.7 mph 18.4 mph N/A   Clear
6:05 PM 17.6 °F 4.3 °F -0.4 °F 45% 30.06 in 10.0 mi North 12.7 mph 18.4 mph N/A   Clear
6:26 PM 17.6 °F 3.7 °F -0.4 °F 45% 30.06 in 10.0 mi North 13.8 mph - N/A   Clear
6:46 PM 17.6 °F 4.3 °F -0.4 °F 45% 30.06 in 10.0 mi North 12.7 mph - N/A   Clear
7:06 PM 17.6 °F 5.7 °F -0.4 °F 45% 30.06 in 10.0 mi North 10.4 mph - N/A   Clear
7:26 PM 17.6 °F 5.7 °F -0.4 °F 45% 30.06 in 10.0 mi NNE 10.4 mph 19.6 mph N/A   Clear
7:46 PM 17.6 °F 4.3 °F -0.4 °F 45% 30.06 in 10.0 mi NNE 12.7 mph 23.0 mph N/A   Clear
8:06 PM 19.4 °F 7.2 °F -0.4 °F 42% 30.06 in 10.0 mi North 11.5 mph 19.6 mph N/A   Clear
8:26 PM 17.6 °F 4.3 °F -0.4 °F 45% 30.06 in 10.0 mi North 12.7 mph 17.3 mph N/A   Clear
8:46 PM 17.6 °F 4.3 °F -0.4 °F 45% 30.06 in 10.0 mi North 12.7 mph 18.4 mph N/A   Clear
9:06 PM 17.6 °F 7.3 °F -0.4 °F 45% 30.07 in 10.0 mi North 8.1 mph 17.3 mph N/A   Clear
9:26 PM 17.6 °F 6.4 °F -0.4 °F 45% 30.07 in 10.0 mi North 9.2 mph - N/A   Clear
9:46 PM 17.6 °F 9.3 °F -0.4 °F 45% 30.07 in 10.0 mi NE 5.8 mph - N/A   Clear
10:06 PM 17.6 °F 4.3 °F -0.4 °F 45% 30.08 in 10.0 mi North 12.7 mph 20.7 mph N/A   Clear
10:26 PM 17.6 °F 1.3 °F -0.4 °F 45% 30.08 in 10.0 mi NNE 19.6 mph 24.2 mph N/A   Clear
10:46 PM 15.8 °F 3.4 °F -0.4 °F 49% 30.08 in 10.0 mi NNE 10.4 mph 23.0 mph N/A   Clear
11:06 PM 14.0 °F 3.9 °F -0.4 °F 53% 30.09 in 10.0 mi NE 6.9 mph - N/A   Clear
11:26 PM 14.0 °F 8.2 °F -0.4 °F 53% 30.09 in 10.0 mi NNE 3.5 mph - N/A   Clear
11:46 PM 14.0 °F 0.5 °F -4.0 °F 45% 30.09 in 10.0 mi North 11.5 mph 17.3 mph N/A   Clear